Regional Weather Roundup
Issued by NWS

Home | Current Version | Previous Version | Graphics & Text | Print | Product List | Glossary On
Versions: 1 2 3 4 5 6 7 8 9 10 11 12 13 14 15 16 17 18 19 20 21 22 23 24 25 26 27 28 29 30 31 32 33 34 35 36 37 38 39 40 41 42 43 44 45 46 47 48 49 50
000
ASUS45 KCYS 021010
RWRWY

WYOMING REGIONAL WEATHER ROUNDUP
NATIONAL WEATHER SERVICE CHEYENNE WY
400 AM MDT THU JUL 02 2015

NOTE:  "FAIR" INDICATES FEW OR NO CLOUDS BELOW 12,000 FEET
WITH NO SIGNIFICANT WEATHER AND/OR OBSTRUCTIONS TO VISIBILITY.

WYZ001-021100-
YELLOWSTONE NATIONAL PARK

CITY           SKY/WX    TMP DP  RH WIND       PRES   REMARKS
LK YELLOWSTONE   N/A     46  40  79 CALM      30.37S
W YELLOWSTONE  NOT AVBL

$$
WYZ002>013-054>058-071-098>099-021100-
NORTHERN WYOMING

CITY           SKY/WX    TMP DP  RH WIND       PRES   REMARKS
JACKSON        MOCLDY    54  46  76 N5        30.24S
CODY           FAIR      64  45  48 NW8       30.21S
GREYBULL       MOCLDY    69  51  52 NW15      30.10R
WORLAND        FAIR      65  56  72 CALM      30.13R
SHERIDAN       FAIR      57  52  83 CALM      30.14S
BUFFALO        FAIR      59  53  80 SW5       30.20S
GILLETTE       FAIR      61  57  87 W7        30.15R
NEWCASTLE      NOT AVBL

$$
WYZ014>020-022>026-101>103-021100-
CENTRAL WYOMING

CITY           SKY/WX    TMP DP  RH WIND       PRES   REMARKS
BIG PINEY      FAIR      54  37  52 CALM      30.27S
PINEDALE       FAIR      50  43  76 NW5       30.29R
DUBOIS         NOT AVBL
LANDER         FAIR      64  51  62 NW7       30.21R
RIVERTON       FAIR      63  55  75 E12       30.20R
CASPER         FAIR      57  55  93 N8        30.20F
DOUGLAS        MOCLDY    62  60  93 S3        30.19S

$$
WYZ021-027>030-104>119-021100-
SOUTHERN WYOMING

CITY           SKY/WX    TMP DP  RH WIND       PRES   REMARKS
EVANSTON       FAIR      60  42  51 SE8       30.28S
FORT BRIDGER   SUNNY     63  41  45 W10       30.29F
ROCK SPRINGS   FAIR      62  49  62 S7        30.24S
RAWLINS        FAIR      56  52  86 NE3       30.26S
LARAMIE        LGT RAIN  54  53  97 E21G31    30.28S
CHEYENNE       LGT RAIN  58  56  93 E28G41    30.22F
TORRINGTON     LGT RAIN  59  57  93 SE14      30.12F

$$



USA.gov is the U.S. government's official web portal to all federal, state and local government web resources and services.